Regional Weather Roundup
Issued by NWS

Home | Current Version | Previous Version | Text Only | Print | Product List | Glossary Off
Versions: 1 2 3 4 5 6 7 8 9 10 11 12 13 14 15 16 17 18 19 20 21 22 23 24 25 26 27 28 29 30 31 32 33 34 35 36 37 38 39 40 41 42 43 44 45 46 47 48

000
ASUS45 KCYS 301510
RWRWY

WYOMING REGIONAL WEATHER ROUNDUP
NATIONAL WEATHER SERVICE CHEYENNE WY
900 AM MDT TUE SEP 30 2014

NOTE:  "FAIR" INDICATES FEW OR NO CLOUDS BELOW 12,000 FEET
WITH NO SIGNIFICANT WEATHER AND/OR OBSTRUCTIONS TO VISIBILITY.

WYZ001-301600-
YELLOWSTONE NATIONAL PARK

CITY           SKY/WX    TMP DP  RH WIND       PRES   REMARKS
LK YELLOWSTONE   N/A     39  35  86 CALM      29.94S
W YELLOWSTONE  NOT AVBL

$$
WYZ002>013-054>058-071-098>099-301600-
NORTHERN WYOMING

CITY           SKY/WX    TMP DP  RH WIND       PRES   REMARKS
JACKSON        LGT RAIN  43  43 100 SW9       29.92R
CODY           PTSUNNY   52  39  62 N3        29.78R
GREYBULL       CLOUDY    47  45  93 CALM      29.75R
WORLAND        CLOUDY    48  45  89 SW5       29.76R
SHERIDAN       PTSUNNY   52  45  77 NW8       29.71R
BUFFALO        CLOUDY    52  40  63 N12G22    29.73R
GILLETTE       LGT RAIN  51  48  89 NW16G23   29.67S
HULETT         LGT RAIN  52  50  93 NW6       29.63
NEWCASTLE      DRIZZLE   50  48  93 NW20G25   29.60

$$
WYZ014>020-022>026-101>103-301600-
CENTRAL WYOMING

CITY           SKY/WX    TMP DP  RH WIND       PRES   REMARKS
BIG PINEY      CLOUDY    41  37  86 CALM      29.95S
PINEDALE       PTSUNNY   43  37  81 NW7       29.95F
DUBOIS         CLOUDY    43  34  70 N9        29.88F
LANDER         SUNNY     47  38  71 E3        29.80F
RIVERTON       SUNNY     52  36  54 W14       29.81S
CASPER         CLOUDY    50  36  58 SW16      29.79S
DOUGLAS        CLOUDY    54  37  52 W20G30    29.74R

$$
WYZ021-027>030-104>119-301600-
SOUTHERN WYOMING

CITY           SKY/WX    TMP DP  RH WIND       PRES   REMARKS
EVANSTON       LGT RAIN  42  41  96 SW14      30.01S FOG
KEMMERER       CLOUDY    41  41 100 W17G23    29.97S
FORT BRIDGER   CLOUDY    43  43  99 W15       30.02R
ROCK SPRINGS   CLOUDY    43  38  82 W14       29.96R
DIXON          CLOUDY    46  39  79 SW12G18   30.01S
RAWLINS        CLOUDY    44  37  76 SW21G29   29.93R
SARATOGA         N/A     45  36  70 SW16      29.96R
LARAMIE        PTSUNNY   46  32  58 W18       29.91R
CHEYENNE       MOSUNNY   53  35  50 W25G37    29.86R
TORRINGTON     CLOUDY    53  46  77 W8        29.72R
PINE BLUFFS    FAIR      55  37  50 W24G33    29.83R

$$



USA.gov is the U.S. government's official web portal to all federal, state and local government web resources and services.